Volver al catálogo

FENGYUN 1C DEB *

LostSSO
NORAD 47044·DEBRIS·🇨🇳 China

Lanzado May 10, 1999 desde Taiyuan Satellite Launch Center

Loading…

Próximos Pases (próximas 24 horas)

TLE

ObsoletoSource: Space-Track

Época: Aug 22, 2022, 22:53 UTC

1 47044U 99025FBW 22234.95413372  .00001211  00000-0  64023-3 0  9994
2 47044  99.0368 291.2233 0074814  58.3197  66.6945 14.14274429589810

Sigue FENGYUN 1C DEB * en tiempo real con AllMySat

Download on the App Store